[[{"header":{"parameterUnit":"m.s-1","parameterCategory":1,"la1":30.2991,"la2":30.254,"lo1":-89.0895,"lo2":-89.0444,"dy":0.0017,"dx":0.0017,"nx":28,"ny":28,"refTime":"2024-07-13T03:00:00:Z","depth":0,"parameterNumber":2,"parameterNumberName":"U-component_of_WINDS"},"data":[0,0,0,0,0,0,0,0,0,0,0,0,0,0,0,0,0,0,0,0,0,0,0,0,0,0,0,0,0,0,0,0,0,0,0,0,0,0,0,0,0,0,0,0,0,0,0,0,0,0,0,0,0,0,0,0,0,0,1.6776,1.6777,0,1.6906,1.6908,1.6909,1.6929,1.6928,1.6926,1.6925,1.7062,1.7067,1.7072,0,0,0,0,0,0,0,0,0,0,0,0,0,1.6546,1.655,1.6776,1.6777,1.6779,1.6906,1.6908,1.6909,1.6929,1.6927,1.6926,1.6925,1.7061,1.7066,1.7072,0,0,0,0,0,0,0,0,0,0,0,0,0,1.6658,1.6552,1.6775,1.6804,1.6808,1.6905,1.6908,1.691,1.6929,1.6927,1.6926,1.6924,1.7059,1.7066,1.7073,1.7153,0,0,1.7095,1.7098,0,0,0,0,0,0,0,0,1.6652,1.6667,1.6798,1.6802,1.6806,1.6899,1.6877,1.6991,1.693,1.6883,1.6925,1.6923,1.701,1.7021,1.7049,1.7159,1.7165,1.7095,1.71,1.7103,1.7105,0,0,0,0,0,0,0,1.6644,1.6661,1.6827,1.68,1.6805,1.6811,1.6825,1.6899,1.6955,1.6887,1.6889,1.6904,1.7012,1.7042,1.7053,1.7167,1.7095,1.7102,1.7106,1.7109,1.7347,1.7349,0,0,0,0,0,0,1.6631,1.6654,1.6823,1.6831,1.6723,1.6816,1.6832,1.6871,1.6954,1.6965,1.6905,1.6904,1.7031,1.7044,1.7058,1.7155,1.7103,1.7109,1.7114,1.7345,1.7348,1.735,0,0,0,0,0,0,1.6626,1.6646,1.6818,1.6743,1.6766,1.6822,1.6866,1.6875,1.6905,1.6968,1.6978,1.6926,1.703,1.7048,1.7128,1.716,1.7113,1.7119,1.7343,1.7346,1.7349,1.7351,0,0,0,0,0,0,1.6619,1.6644,1.6674,1.6744,1.677,1.6886,1.6868,1.6879,1.6917,1.6917,1.699,1.7,1.703,1.7117,1.7135,1.7169,1.7125,1.734,1.7344,1.7348,1.7349,1.7354,1.7359,0,0,0,0,0,1.6611,1.667,1.6675,1.6695,1.6808,1.6887,1.6902,1.6934,1.692,1.6951,1.6991,1.6998,1.7154,1.7126,1.7146,1.7182,1.7338,1.7343,1.7348,1.7346,1.7353,1.7359,0,0,0,0,0,0,1.6604,1.668,1.6686,1.677,1.6822,1.689,1.6931,1.694,1.6998,1.6996,1.7034,1.7051,1.7129,1.7164,1.7131,1.7263,1.7245,1.7254,1.7237,1.7244,1.7249,1.7239,1.7131,0,0,0,0,0,1.6612,1.6669,1.6733,1.6801,1.6826,1.6874,1.691,1.6929,1.6985,1.7007,1.7053,1.7108,1.7169,1.7209,1.7269,1.7354,1.737,1.7389,1.7394,1.7398,1.7405,1.7452,1.7461,1.7365,1.7365,1.7365,0,0,1.663,1.6678,1.6712,1.6801,1.6843,1.6901,1.6892,1.6955,1.6999,1.7018,1.7096,1.7131,1.7195,1.7278,1.7317,1.7309,1.7435,1.7404,1.7407,1.7412,1.7457,1.7466,1.7474,1.7368,1.7368,1.7367,0,0,1.6692,1.6734,1.6795,1.6837,1.6901,1.6932,1.6947,1.7014,1.7037,1.7116,1.7131,1.7185,1.7289,1.7333,1.737,1.7447,1.7456,1.7466,1.7492,1.7537,1.7545,1.7551,1.7578,1.7587,1.7473,1.7473,1.7473,0,1.6706,1.6793,1.6825,1.6887,1.6925,1.6943,1.7005,1.7045,1.7125,1.7152,1.7142,1.7273,1.7317,1.741,1.7429,1.7458,1.7475,1.7457,1.7541,1.7548,1.7555,1.7581,1.7591,1.7473,1.7473,1.7473,1.7473,0,1.6807,1.6868,1.6909,1.6985,1.7028,1.7089,1.7131,1.7171,1.7187,1.7219,1.7299,1.7353,1.7423,1.7447,1.7464,1.7542,1.7535,1.7533,1.7515,1.7564,1.7589,1.7599,1.7474,1.7474,1.7474,1.7474,0,0,1.6868,1.696,1.6974,1.7008,1.708,1.7128,1.719,1.7257,1.729,1.7345,1.7398,1.7486,1.7484,1.7525,1.7547,1.7587,1.7643,1.758,1.7582,1.7588,1.7731,1.7731,1.7742,1.7649,1.7651,1.7653,1.7725,0,1.6938,1.7047,1.7078,1.7171,1.7227,1.7245,1.7299,1.7349,1.7381,1.7434,1.747,1.753,1.7523,1.7548,1.7588,1.7628,1.7672,1.7623,1.7699,1.7701,1.7681,1.7756,1.7757,1.7822,1.7735,1.7737,1.7738,0,1.7033,1.7088,1.7186,1.7249,1.7274,1.7322,1.7386,1.7436,1.7493,1.7513,1.7558,1.7577,1.7643,1.7622,1.7713,1.7679,1.7712,1.7736,1.7739,1.7747,1.7722,1.7764,1.7844,1.7853,1.7754,1.7753,1.7752,0,1.7066,1.7165,1.7236,1.7265,1.7341,1.7374,1.7407,1.7462,1.7501,1.7557,1.7582,1.7645,1.768,1.7729,1.7764,1.7746,1.7852,1.7834,1.787,1.7869,1.7891,1.7889,1.7977,1.7914,1.7914,1.7914,1.7914,0,1.7139,1.7199,1.7252,1.7296,1.7363,1.7397,1.7463,1.7497,1.7546,1.7597,1.7617,1.7665,1.7708,1.7762,1.779,1.7861,1.7877,1.7895,1.7902,1.7893,1.789,1.7914,1.791,1.7917,1.7916,1.7916,1.7915,0,1.7187,1.7226,1.7304,1.7369,1.7387,1.7433,1.7489,1.7532,1.7564,1.7629,1.7646,1.7697,1.7761,1.7801,1.7883,1.7901,1.7979,1.7984,1.7959,1.7962,1.7995,1.7991,1.81,1.8116,1.8044,1.8044,1.8045,0,1.7231,1.7277,1.7346,1.7381,1.7414,1.7471,1.7509,1.7545,1.7585,1.7652,1.7687,1.7752,1.7806,1.7908,1.7953,1.8015,1.8022,1.8056,1.8031,1.802,1.8021,1.8017,1.8022,1.806,1.806,1.8061,1.8061,0,1.7304,1.7321,1.7375,1.7436,1.7481,1.7531,1.7581,1.7609,1.7653,1.7696,1.7761,1.7803,1.7886,1.795,1.8016,1.8051,1.8063,1.8068,1.808,1.8071,1.8053,1.8062,1.7968,1.8066,1.8065,1.8065,1.8065,1.8064,1.7351,1.7392,1.7446,1.7506,1.7547,1.7593,1.7636,1.7673,1.7728,1.7797,1.7815,1.7883,1.7939,1.8028,1.8065,1.8119,1.8114,1.8131,1.8135,1.8138,1.8138,1.8045,1.8131,1.8131,1.8131,1.8131,1.8131,0,1.7424,1.746,1.7514,1.7583,1.7629,1.7636,1.7691,1.773,1.7789,1.7839,1.7891,1.7966,1.8028,1.8077,1.8141,1.8174,1.8182,1.819,1.8187,1.8195,1.8139,1.8122,1.8183,1.8183,1.8183,1.8183,1.8183,1.8183,1.7467,1.7537,1.7559,1.7649,1.7685,1.775,1.7781,1.7824,1.7864,1.7945,1.7996,1.8028,1.8077,1.8145,1.8202,1.8215,1.8237,1.8244,1.8258,1.8205,1.8199,1.8194,1.8178,1.8249,1.8249,1.8309,1.831,1.831]},{"header":{"parameterUnit":"m.s-1","parameterCategory":1,"la1":30.2991,"la2":30.254,"lo1":-89.0895,"lo2":-89.0444,"dy":0.0017,"dx":0.0017,"nx":28,"ny":28,"refTime":"2024-07-13T03:00:00:Z","depth":0,"parameterNumber":3,"parameterNumberName":"V-component_of_WINDS"},"data":[0,0,0,0,0,0,0,0,0,0,0,0,0,0,0,0,0,0,0,0,0,0,0,0,0,0,0,0,0,0,0,0,0,0,0,0,0,0,0,0,0,0,0,0,0,0,0,0,0,0,0,0,0,0,0,0,0,0,3.5165,3.5165,0,3.5168,3.5168,3.5168,3.5166,3.5166,3.5166,3.5166,3.5167,3.5167,3.5167,0,0,0,0,0,0,0,0,0,0,0,0,0,3.5152,3.5152,3.5165,3.5165,3.5165,3.5168,3.5168,3.5168,3.5166,3.5166,3.5166,3.5166,3.5167,3.5167,3.5167,0,0,0,0,0,0,0,0,0,0,0,0,0,3.5157,3.5152,3.5165,3.5164,3.5164,3.5168,3.5168,3.5168,3.5166,3.5166,3.5166,3.5166,3.5167,3.5167,3.5167,3.5171,0,0,3.5168,3.5168,0,0,0,0,0,0,0,0,3.5156,3.5157,3.5164,3.5164,3.5164,3.5167,3.5164,3.5169,3.5166,3.5165,3.5166,3.5166,3.5167,3.5167,3.5168,3.5171,3.5171,3.5168,3.5168,3.5168,3.5168,0,0,0,0,0,0,0,3.5156,3.5157,3.5166,3.5164,3.5164,3.5162,3.5163,3.5165,3.5167,3.5165,3.5165,3.5166,3.5167,3.5168,3.5168,3.5171,3.5168,3.5168,3.5168,3.5168,3.5175,3.5175,0,0,0,0,0,0,3.5156,3.5157,3.5166,3.5166,3.516,3.5163,3.5163,3.5166,3.5167,3.5167,3.5166,3.5166,3.5168,3.5168,3.5168,3.5171,3.5168,3.5168,3.5168,3.5175,3.5175,3.5175,0,0,0,0,0,0,3.5156,3.5157,3.5166,3.5161,3.5162,3.5163,3.5166,3.5166,3.5167,3.5167,3.5167,3.5167,3.5168,3.5168,3.517,3.5171,3.5168,3.5169,3.5175,3.5175,3.5175,3.5178,0,0,0,0,0,0,3.5155,3.5157,3.516,3.5161,3.5162,3.5169,3.5166,3.5166,3.5168,3.5167,3.5168,3.5168,3.5167,3.517,3.517,3.5171,3.5169,3.5175,3.5175,3.5175,3.5178,3.5178,3.5179,0,0,0,0,0,3.5155,3.516,3.516,3.5161,3.5166,3.5169,3.517,3.5169,3.5168,3.517,3.5169,3.5168,3.5171,3.517,3.5171,3.5172,3.5175,3.5175,3.5175,3.5178,3.5178,3.5179,0,0,0,0,0,0,3.5158,3.5161,3.516,3.5166,3.5167,3.5169,3.5171,3.517,3.5172,3.5171,3.517,3.517,3.5172,3.5172,3.5171,3.5174,3.5172,3.5173,3.5174,3.5175,3.5175,3.5175,3.5169,0,0,0,0,0,3.516,3.5163,3.5164,3.517,3.517,3.5171,3.5172,3.5172,3.5173,3.5173,3.5173,3.5173,3.5173,3.5174,3.5175,3.5178,3.5177,3.5178,3.5179,3.5179,3.5179,3.5178,3.5179,3.5176,3.5176,3.5176,0,0,3.5163,3.5164,3.5167,3.517,3.5171,3.5173,3.5171,3.5174,3.5175,3.5173,3.5175,3.5175,3.5174,3.5176,3.5177,3.5176,3.5179,3.5179,3.5179,3.5179,3.5179,3.5179,3.5179,3.5176,3.5176,3.5176,0,0,3.5169,3.5171,3.5175,3.5176,3.5177,3.5177,3.5178,3.5179,3.5178,3.518,3.5178,3.5179,3.5181,3.518,3.518,3.5183,3.5181,3.5183,3.5185,3.5184,3.5185,3.5185,3.5185,3.5185,3.5184,3.5184,3.5184,0,3.5173,3.5177,3.5177,3.5179,3.518,3.5178,3.5181,3.5181,3.5183,3.5182,3.5182,3.5182,3.5182,3.5183,3.5183,3.5184,3.5183,3.5183,3.5185,3.5185,3.5185,3.5185,3.5185,3.5184,3.5184,3.5184,3.5184,0,3.518,3.5182,3.5185,3.5186,3.5187,3.519,3.5189,3.5189,3.5188,3.5187,3.5188,3.5188,3.5187,3.5187,3.5187,3.5187,3.5186,3.5185,3.5184,3.5186,3.5185,3.5185,3.5184,3.5184,3.5184,3.5184,0,0,3.519,3.519,3.5191,3.519,3.519,3.5192,3.5193,3.5193,3.5193,3.5193,3.5193,3.5193,3.5192,3.5191,3.519,3.5189,3.519,3.5188,3.5188,3.5187,3.5189,3.5189,3.5189,3.5189,3.5189,3.5189,3.5188,0,3.5195,3.5198,3.5197,3.52,3.5201,3.5199,3.5199,3.5199,3.5197,3.5197,3.5195,3.5195,3.5194,3.5193,3.5192,3.519,3.519,3.519,3.5187,3.5187,3.5187,3.5189,3.519,3.519,3.5188,3.5188,3.5188,0,3.5202,3.5203,3.5206,3.5204,3.5204,3.5205,3.5204,3.5204,3.5202,3.5201,3.52,3.5198,3.5197,3.5195,3.5193,3.5193,3.5192,3.519,3.519,3.5189,3.5188,3.5188,3.519,3.519,3.5188,3.5188,3.5188,0,3.5207,3.5209,3.521,3.521,3.5208,3.5208,3.5208,3.5206,3.5205,3.5203,3.5203,3.5201,3.52,3.5197,3.5194,3.5194,3.5192,3.519,3.5189,3.5189,3.5189,3.5189,3.5191,3.5189,3.5189,3.5189,3.5189,0,3.5213,3.5215,3.5212,3.5213,3.5214,3.5211,3.5212,3.521,3.5208,3.5208,3.5205,3.5204,3.52,3.5198,3.5195,3.5193,3.5192,3.519,3.519,3.519,3.5191,3.5189,3.5189,3.5189,3.5189,3.5189,3.5189,0,3.5219,3.5218,3.5219,3.5217,3.5216,3.5216,3.5214,3.5213,3.5211,3.521,3.521,3.5206,3.5203,3.52,3.5196,3.5194,3.5192,3.5191,3.5192,3.5192,3.5191,3.5191,3.5191,3.519,3.519,3.519,3.519,0,3.5223,3.5224,3.5222,3.5221,3.522,3.522,3.5219,3.5216,3.5215,3.5211,3.5211,3.5208,3.5206,3.5201,3.5197,3.5194,3.5192,3.5193,3.5192,3.5192,3.5191,3.5191,3.519,3.5193,3.5193,3.5193,3.5193,0,3.5229,3.5228,3.5227,3.5225,3.5224,3.5223,3.5221,3.5221,3.5217,3.5215,3.5213,3.5211,3.5206,3.5203,3.5199,3.5196,3.5193,3.5193,3.5192,3.5193,3.5194,3.5192,3.5192,3.5193,3.5193,3.5193,3.5193,3.5193,3.5233,3.5233,3.5231,3.523,3.5228,3.5226,3.5225,3.5222,3.522,3.5217,3.5215,3.5212,3.5208,3.5202,3.5199,3.5195,3.5195,3.5194,3.5194,3.5194,3.5193,3.5194,3.5195,3.5195,3.5195,3.5195,3.5195,0,3.5238,3.5236,3.5235,3.5232,3.5231,3.5229,3.5226,3.5224,3.5222,3.5219,3.5216,3.5212,3.5208,3.5203,3.5199,3.5197,3.5195,3.5195,3.5195,3.5194,3.5195,3.5195,3.5197,3.5197,3.5197,3.5197,3.5197,3.5197,3.524,3.524,3.5238,3.5235,3.5233,3.5231,3.5229,3.5226,3.5223,3.5219,3.5216,3.5213,3.5209,3.5203,3.5199,3.5198,3.5196,3.5196,3.5194,3.5195,3.5195,3.5194,3.5195,3.5196,3.5196,3.5194,3.5194,3.5194]}]]